ESGG

Gothenburg/Landvetter

Airport
ICAO code
ESGG
Summary
ICAO Region
EUR
ICAO Territory
Location

Gothenburg, Sweden,

Elevation
506 ft
Coordinates
57° 39' 46" N , 12° 16' 47" E
KCC
Metar
ESGG 272120Z 17005KT CAVOK 13/12 Q1016

Description

International airport serving Gothenburg in Western Sweden.

Climatology

Temperate Marine climate/Oceanic climate (Köppen climate classification Cfb). Moderately cool summer and comparatively warm winter.

Runways

Designator Length Width Surface Rops
3/21 3299 45 ASP Yes/Yes

Airport map

Aerial View

SKYbrary Partners:

Safety knowledge contributed by: